This demonstration page uses our WeatherBlox Daily Observations layout. Learn more.

Left ArrowRight Arrow

Hourly Observations for January 15, 2015

Temp ( °F °C ) Dew Point ( °F °C ) Humidity (%) Winds ( mph kmh ) Pressure ( in mb ) Visibility ( mi km ) Precip ( " mm )
12:15 am 00:15 Clear 19 -7 9 -13 63 63 Calm 30.3 1026 10 16.0934 N/A
12:35 am 00:35 Partly Cloudy 19 -7 9 -13 63 63 Calm 30.3 1026 10 16.0934 N/A
12:55 am 00:55 Partly Cloudy 19 -7 9 -13 63 63 Calm 30.3 1026 10 16.0934 N/A
1:15 am 01:15 Partly Cloudy 19 -7 9 -13 63 63 Calm 30.3 1026 10 16.0934 N/A
1:35 am 01:35 Partly Cloudy 19 -7 10 -12 68 68 Calm 30.27 1025 10 16.0934 N/A
1:55 am 01:55 Partly Cloudy 19 -7 10 -12 68 68 Calm 30.27 1025 7 11.26538 N/A
2:15 am 02:15 Partly Cloudy 18 -8 10 -12 73 73 Calm 30.27 1025 10 16.0934 N/A
2:36 am 02:36 Partly Cloudy 18 -8 10 -12 73 73 Calm 30.27 1025 7 11.26538 N/A
2:55 am 02:55 Partly Cloudy 18 -8 10 -12 73 73 Calm 30.27 1025 7 11.26538 N/A
3:15 am 03:15 Clear 18 -8 14 -10 86 86 Calm 30.27 1025 7 11.26538 N/A
3:36 am 03:36 Clear 16 -9 14 -10 93 93 Calm 30.27 1025 5 8.0467 N/A
3:55 am 03:55 Clear 14 -10 14 -10 100 100 Calm 30.27 1025 5 8.0467 N/A
4:15 am 04:15 Clear 16 -9 16 -9 100 100 Calm 30.27 1025 7 11.26538 N/A
4:35 am 04:35 Clear 14 -10 14 -10 100 100 S 3 6 30.27 1025 5 8.0467 N/A
4:55 am 04:55 Clear 12 -11 12 -11 100 100 S 3 6 30.27 1025 5 8.0467 N/A
5:16 am 05:16 Clear 12 -11 12 -11 100 100 S 3 6 30.27 1025 5 8.0467 N/A
5:35 am 05:35 Clear 12 -11 12 -11 100 100 Calm 30.27 1025 5 8.0467 N/A
5:55 am 05:55 Clear 14 -10 14 -10 100 100 Calm 30.27 1025 5 8.0467 N/A
6:15 am 06:15 Clear 12 -11 12 -11 100 100 Calm 30.27 1025 4 6.43736 N/A
6:35 am 06:35 Clear 12 -11 12 -11 100 100 Calm 30.27 1025 4 6.43736 N/A
6:55 am 06:55 Clear 12 -11 12 -11 100 100 S 3 6 30.27 1025 4 6.43736 N/A
7:15 am 07:15 Clear 12 -11 12 -11 100 100 S 3 6 30.27 1025 5 8.0467 N/A
7:35 am 07:35 Clear 12 -11 12 -11 100 100 Calm 30.27 1025 5 8.0467 N/A
7:56 am 07:56 Clear 12 -11 12 -11 100 100 Calm 30.27 1025 5 8.0467 N/A
8:15 am 08:15 Sunny 12 -11 12 -11 100 100 Calm 30.27 1025 4 6.43736 N/A
8:35 am 08:35 Sunny 14 -10 14 -10 100 100 S 3 6 30.27 1025 4 6.43736 N/A
8:55 am 08:55 Sunny 16 -9 16 -9 100 100 S 6 9 30.27 1025 5 8.0467 N/A
9:15 am 09:15 Sunny 19 -7 19 -7 100 100 S 5 7 30.24 1024 7 11.26538 N/A
9:35 am 09:35 Sunny 21 -6 19 -7 93 93 SW 7 11 30.27 1025 7 11.26538 N/A
9:55 am 09:55 Sunny 23 -5 16 -9 74 74 SW 8 13 30.27 1025 7 11.26538 N/A
10:15 am 10:15 Sunny 25 -4 14 -10 63 63 SW 8 13 30.27 1025 7 11.26538 N/A
10:36 am 10:36 Sunny 27 -3 12 -11 54 54 WSW 10 17 30.24 1024 10 16.0934 N/A
10:55 am 10:55 Sunny 27 -3 12 -11 54 54 SW 10 17 30.21 1023 10 16.0934 N/A
11:15 am 11:15 Sunny 28 -2 10 -12 47 47 SW 9 15 30.21 1023 10 16.0934 N/A
11:35 am 11:35 Sunny 28 -2 12 -11 51 51 SW 12 19 30.21 1023 10 16.0934 N/A
11:55 am 11:55 Sunny 28 -2 12 -11 51 51 WSW 9 15 30.21 1023 10 16.0934 N/A
12:16 pm 12:16 Sunny 30 -1 12 -11 47 47 SW 12 19 30.21 1023 10 16.0934 N/A
12:35 pm 12:35 Sunny 30 -1 12 -11 47 47 WSW 8 13 30.18 1022 10 16.0934 N/A
12:55 pm 12:55 Sunny 32 0 12 -11 44 44 WSW 12 19 30.18 1022 10 16.0934 N/A
1:15 pm 13:15 Sunny 32 0 12 -11 44 44 SW 9 15 30.15 1021 10 16.0934 N/A
1:35 pm 13:35 Sunny 32 0 12 -11 44 44 SW 8 13 30.15 1021 10 16.0934 N/A
1:55 pm 13:55 Sunny 34 1 12 -11 41 41 SW 9 15 30.15 1021 10 16.0934 N/A
2:15 pm 14:15 Sunny 34 1 14 -10 44 44 WSW 13 20 30.15 1021 10 16.0934 N/A
2:35 pm 14:35 Sunny 34 1 12 -11 41 41 WSW 15 24 30.15 1021 10 16.0934 N/A
2:55 pm 14:55 Sunny 36 2 14 -10 41 41 WSW 12 19 30.15 1021 10 16.0934 N/A
3:15 pm 15:15 Sunny 36 2 14 -10 41 41 WSW 15 24 30.15 1021 10 16.0934 N/A
3:35 pm 15:35 Sunny 36 2 12 -11 38 38 SW 12 19 30.12 1020 10 16.0934 N/A
3:56 pm 15:56 Sunny 36 2 14 -10 41 41 WSW 10 17 30.12 1020 10 16.0934 N/A
4:15 pm 16:15 Sunny 36 2 14 -10 41 41 W 14 22 30.12 1020 10 16.0934 N/A
4:35 pm 16:35 Sunny 36 2 14 -10 41 41 WSW 13 20 30.12 1020 10 16.0934 N/A
4:56 pm 16:56 Sunny 36 2 16 -9 44 44 W 13 20 30.12 1020 10 16.0934 N/A
5:15 pm 17:15 Sunny 34 1 16 -9 48 48 WSW 9 15 30.12 1020 10 16.0934 N/A
5:35 pm 17:35 Sunny 34 1 14 -10 44 44 WSW 9 15 30.12 1020 10 16.0934 N/A
5:55 pm 17:55 Clear 34 1 14 -10 44 44 WSW 12 19 30.15 1021 10 16.0934 N/A
6:15 pm 18:15 Clear 32 0 16 -9 51 51 WSW 8 13 30.15 1021 10 16.0934 N/A
6:36 pm 18:36 Clear 32 0 16 -9 51 51 SW 8 13 30.15 1021 10 16.0934 N/A
6:55 pm 18:55 Clear 32 0 16 -9 51 51 SW 7 11 30.15 1021 10 16.0934 N/A
7:15 pm 19:15 Clear 32 0 16 -9 51 51 SW 6 9 30.15 1021 10 16.0934 N/A
7:35 pm 19:35 Clear 30 -1 16 -9 55 55 SSW 7 11 30.15 1021 10 16.0934 N/A
7:55 pm 19:55 Clear 30 -1 16 -9 55 55 SSW 6 9 30.15 1021 10 16.0934 N/A
8:15 pm 20:15 Clear 30 -1 16 -9 55 55 SW 7 11 30.15 1021 10 16.0934 N/A
8:35 pm 20:35 Clear 30 -1 14 -10 51 51 SW 7 11 30.15 1021 10 16.0934 N/A
8:55 pm 20:55 Clear 30 -1 14 -10 51 51 SSW 8 13 30.15 1021 10 16.0934 N/A
9:15 pm 21:15 Clear 30 -1 14 -10 51 51 SSW 8 13 30.15 1021 10 16.0934 N/A
9:35 pm 21:35 Clear 30 -1 16 -9 55 55 SW 9 15 30.15 1021 10 16.0934 N/A
9:56 pm 21:56 Clear 30 -1 16 -9 55 55 SW 9 15 30.15 1021 10 16.0934 N/A
10:15 pm 22:15 Clear 30 -1 16 -9 55 55 SW 9 15 30.15 1021 10 16.0934 N/A
10:35 pm 22:35 Clear 30 -1 16 -9 55 55 SW 9 15 30.15 1021 10 16.0934 N/A
10:55 pm 22:55 Clear 30 -1 16 -9 55 55 SW 9 15 30.15 1021 10 16.0934 N/A
11:15 pm 23:15 Clear 30 -1 16 -9 55 55 SW 8 13 N/A 10 16.0934 N/A
11:35 pm 23:35 Clear 30 -1 18 -8 59 59 SW 8 13 30.15 1021 10 16.0934 N/A
11:55 pm 23:55 Clear 30 -1 18 -8 59 59 SW 8 13 30.15 1021 10 16.0934 N/A

Powered by AerisWeather